Flag for Germany Weather past 2 weeks in Husum, Schleswig-Holstein, Germany

Now
75 °F

Broken clouds.


Feels Like: 77 °F
Forecast: 56 / 68 °F
Wind: 10 mph from Northwest

Location: Schleswig-Jagel

Current Time: Aug 4, 2015 at 12:13:07 PM

Latest Report: Aug 4, 2015 at 11:20 AM


Visibility: N/A

Pressure: 29.89 "Hg

Humidity: 61%

Dew point: 61 °F

Location of HusumLocation

Historic Weather in Husum — Graph

°F

Husum temperature yesterday

Maximum temperature yesterday: 84 °F (at 5:20 PM)
Minimum temperature yesterday: 52 °F (at 5:20 AM)
Average temperature yesterday: 68 °F

Past Weeks' High & Low Weather Summary

 TemperatureHumidityPressure
High84 °F (Aug 3, 5:20 PM)100% (Jul 21, 6:58 AM)30.12 "Hg (Jul 21, 6:58 AM)
Low48 °F (Jul 24, 4:20 AM)42% (Aug 3, 4:20 PM)29.39 "Hg (Jul 28, 3:20 AM)
Average61 °F79%29.81 "Hg
* Reported Jul 20 10:20 AM — Aug 4 10:20 AM, Husum, Weather by CustomWeather, © 2015

Note: Actual official high and low records may vary slightly from our data, if they occured in-between our weather recording intervals... More about our weather records

Advertising

Husum weather history for previous 24 hours

 ConditionsComfort  
Time TempWeatherWind HumidityBarometerVisibility
10:20 AM
Tue, Aug 4
77 °FBroken clouds.9 mph57%29.89 "HgN/A
9:20 AM77 °FPartly sunny.7 mph54%29.86 "HgN/A
8:20 AM72 °FPartly sunny.8 mph61%29.86 "HgN/A
7:20 AM70 °FPartly sunny.12 mph64%29.86 "HgN/A
6:20 AM66 °FMild.8 mph73%29.86 "Hg3 mi
5:20 AM66 °FMild.6 mph73%29.89 "Hg3 mi
4:20 AM66 °FMild.5 mph73%29.92 "Hg3 mi
3:20 AM68 °FMild.10 mph64%29.92 "Hg2 mi
2:20 AM68 °FMild.9 mph69%29.92 "Hg2 mi
1:20 AM70 °FMild.8 mph64%29.92 "Hg2 mi
12:20 AM68 °FMild.8 mph69%29.95 "Hg2 mi
11:20 PM
Mon, Aug 3
66 °FMild.6 mph78%29.95 "Hg2 mi
10:20 PM68 °FMild.6 mph73%29.95 "Hg2 mi
9:20 PM72 °FMild.6 mph69%29.95 "Hg2 mi
8:20 PM75 °FMild.8 mph61%29.95 "Hg2 mi
7:20 PM79 °FWarm.9 mph58%29.95 "Hg3 mi
6:20 PM84 °FWarm.7 mph43%29.95 "Hg3 mi
5:20 PM84 °FWarm.9 mph43%29.98 "Hg3 mi
4:20 PM82 °FPassing clouds.13 mph42%29.98 "HgN/A
3:20 PM81 °FPassing clouds.10 mph45%30.01 "HgN/A
2:20 PM79 °FPassing clouds.13 mph48%30.01 "HgN/A
1:20 PM77 °FScattered clouds.13 mph47%30.04 "HgN/A
12:20 PM75 °FPassing clouds.13 mph47%30.04 "HgN/A
Weather by CustomWeather, © 2015

See weather overviewHow to use our weather pages